Hourly Data Report for January 17, 2021

TORONTO CITY
ONTARIO
Current Station Operator: ECCC - MSC

43°40'00.000" N
79°24'00.000" W
112.50 m
6158355
71508
XTO

Download Data

Hourly Data (January 2021)
Hourly Data Report for January 17, 2021
TIME
LST
Temp Definition
°C
Dew Point Definition
°C
Rel Hum Definition
%
Precip. Amount Definition
mm

Wind Dir Definition
10's deg

Wind Spd Definition
km/h
Visibility Definition
km
Stn Press Definition
kPa
Hmdx Definition


Wind Chill Definition


Weather Definition


00:00 0.9 -4.2 68 0.0       98.36     LegendNANA
01:00 1.1 -3.2 73 0.0       98.36     LegendNANA
02:00 1.2 -2.9 74 0.0       98.37     LegendNANA
03:00 1.4 -2.8 74 0.0       98.40     LegendNANA
04:00 1.6 -1.8 78 0.0       98.42     LegendNANA
05:00 2.0 -1.3 79 0.2       98.41     LegendNANA
06:00 2.0 -1.3 79 0.0       98.47     LegendNANA
07:00 1.7 -2.7 73 0.0       98.55     LegendNANA
08:00 1.7 -2.7 73 0.0       98.64     LegendNANA
09:00 2.1 -2.5 72 0.0       98.74     LegendNANA
10:00 2.8 -1.8 72 0.0       98.80     LegendNANA
11:00 3.5 -2.2 66 0.0       98.80     LegendNANA
12:00 4.0 -2.7 61 0.0       98.76     LegendNANA
13:00 4.0 -3.2 59 0.0       98.76     LegendNANA
14:00 4.2 -3.3 58 0.0       98.75     LegendNANA
15:00 4.2 -4.1 55 0.0       98.79     LegendNANA
16:00 3.6 -3.7 58 0.0       98.84     LegendNANA
17:00 2.0 -3.4 67 0.0       98.90     LegendNANA
18:00 2.1 -2.6 71 0.0       98.94     LegendNANA
19:00 1.9 -2.6 72 0.0       98.98     LegendNANA
20:00 1.7 -2.4 75 0.0       99.00     LegendNANA
21:00 0.6 -2.6 79 0.0       99.00     LegendNANA
22:00 0.1 -3.0 79 0.0       99.00     LegendNANA
23:00 -0.2 -4.1 75 0.0       98.99     LegendNANA

Notes on Data Quality.

Legend

  • E = Estimated
  • M = Missing
  • NA = Not Available*
  • [empty] = Indicates an unobserved value
Date modified: